Flag for U.S.A. Weather past 2 weeks in Visalia, California, U.S.A.

Now
90 °F

Sunny.


Feels Like: 87 °F
Forecast: 60 / 89 °F
Wind: 9 mph from Northwest

Location: Visalia Municipal

Current Time: Aug 20, 2014 at 4:37:51 PM

Latest Report: Aug 20, 2014 at 4:15 PM


Visibility: 10 mi

Pressure: 29.80 "Hg

Humidity: 29%

Dew point: 54 °F

Location of VisaliaLocation

Historic Weather in Visalia — Graph

°F

Visalia temperature yesterday

Maximum temperature yesterday: 90 °F (at 3:35 PM)
Minimum temperature yesterday: 63 °F (at 4:55 AM)
Average temperature yesterday: 76 °F

Past Weeks' High & Low Weather Summary

 TemperatureHumidityPressure
High100 °F (Aug 8, 5:55 PM)78% (Aug 6, 6:15 AM)30.02 "Hg (Aug 6, 6:15 AM)
Low61 °F (Aug 16, 5:55 AM)17% (Aug 16, 5:35 PM)29.70 "Hg (Aug 18, 6:15 PM)
Average80 °F48%29.87 "Hg
* Reported Aug 5 3:15 PM — Aug 20 3:35 PM, Visalia, Weather by CustomWeather, © 2014

Note: Actual official high and low records may vary slightly from our data, if they occured in-between our weather recording intervals... More about our weather records

Advertising

Visalia weather history for previous 24 hours

 ConditionsComfort  
Time TempWeatherWind HumidityBarometerVisibility
3:35 PM
Aug 20
90 °FSunny.9 mph33%29.82 "Hg10 mi
3:15 PM90 °FSunny.5 mph33%29.82 "Hg10 mi
2:55 PM88 °FSunny.8 mph35%29.83 "Hg10 mi
2:35 PM88 °FSunny.7 mph35%29.84 "Hg10 mi
1:55 PM88 °FSunny.3 mph40%29.85 "Hg10 mi
1:35 PM84 °FSunny.6 mph45%29.87 "Hg10 mi
1:15 PM84 °FSunny.6 mph45%29.87 "Hg10 mi
12:55 PM84 °FSunny.5 mph48%29.88 "Hg10 mi
12:35 PM82 °FSunny.7 mph48%29.89 "Hg10 mi
12:15 PM81 °FSunny.5 mph51%29.89 "Hg10 mi
11:55 AM79 °FSunny.8 mph54%29.90 "Hg10 mi
11:35 AM77 °FSunny.7 mph57%29.90 "Hg9 mi
10:55 AM75 °FSunny.5 mph57%29.91 "Hg7 mi
10:35 AM73 °FSunny.7 mph57%29.91 "Hg7 mi
10:15 AM73 °FSunny.6 mph57%29.91 "Hg9 mi
9:55 AM73 °FSunny.6 mph57%29.90 "Hg8 mi
9:35 AM72 °FSunny.6 mph57%29.90 "Hg9 mi
9:15 AM70 °FSunny.6 mph60%29.90 "Hg9 mi
8:55 AM68 °FSunny.6 mph60%29.89 "Hg10 mi
8:35 AM66 °FSunny.5 mph60%29.89 "Hg10 mi
8:15 AM64 °FSunny.3 mph64%29.89 "Hg9 mi
7:55 AM64 °FSunny.No wind64%29.88 "Hg9 mi
7:35 AM63 °FSunny.No wind68%29.88 "Hg10 mi
7:15 AM63 °FClear.No wind64%29.87 "Hg10 mi
6:55 AM61 °FClear.3 mph68%29.86 "Hg10 mi
6:35 AM61 °FClear.5 mph63%29.85 "Hg10 mi
6:15 AM61 °FClear.3 mph63%29.85 "Hg10 mi
5:55 AM63 °FClear.No wind64%29.84 "Hg10 mi
5:35 AM63 °FClear.No wind64%29.83 "Hg10 mi
4:55 AM63 °FClear.6 mph64%29.82 "Hg10 mi
4:35 AM63 °FClear.5 mph64%29.82 "Hg10 mi
4:15 AM63 °FClear.3 mph64%29.82 "Hg10 mi
3:55 AM63 °FClear.7 mph64%29.82 "Hg10 mi
3:35 AM64 °FClear.3 mph60%29.82 "Hg10 mi
3:15 AM64 °FClear.6 mph60%29.82 "Hg8 mi
2:55 AM64 °FClear.5 mph60%29.81 "Hg8 mi
2:35 AM64 °FClear.No wind60%29.81 "Hg8 mi
2:15 AM64 °FClear.5 mph64%29.81 "Hg9 mi
1:55 AM66 °FClear.6 mph56%29.80 "Hg10 mi
1:35 AM66 °FClear.No wind60%29.80 "Hg10 mi
12:55 AM66 °FClear.3 mph56%29.81 "Hg10 mi
12:35 AM66 °FClear.3 mph56%29.80 "Hg10 mi
12:15 AM66 °FClear.6 mph52%29.80 "Hg10 mi
11:55 PM
Aug 19
68 °FClear.5 mph49%29.80 "Hg10 mi
11:35 PM70 °FClear.8 mph46%29.79 "Hg10 mi
10:55 PM70 °FClear.9 mph53%29.79 "Hg10 mi
10:35 PM70 °FClear.No wind53%29.78 "Hg10 mi
10:15 PM72 °FClear.7 mph50%29.78 "Hg10 mi
9:55 PM73 °FClear.5 mph47%29.79 "Hg10 mi
9:35 PM73 °FClear.5 mph53%29.76 "Hg10 mi
9:15 PM75 °FClear.No wind50%29.75 "Hg10 mi
8:55 PM77 °FClear.3 mph47%29.74 "Hg9 mi
8:35 PM77 °FSunny.5 mph51%29.72 "Hg10 mi
8:15 PM79 °FSunny.5 mph45%29.72 "Hg10 mi
7:55 PM84 °FSunny.3 mph33%29.72 "Hg9 mi
7:35 PM88 °FSunny.No wind27%29.73 "Hg10 mi
7:15 PM88 °FSunny.5 mph27%29.72 "Hg10 mi
6:55 PM88 °FSunny.6 mph29%29.72 "Hg10 mi
6:35 PM90 °FSunny.7 mph27%29.72 "Hg10 mi
6:15 PM90 °FSunny.6 mph29%29.71 "Hg10 mi
5:55 PM90 °FSunny.3 mph31%29.71 "Hg10 mi
5:35 PM90 °FSunny.7 mph29%29.71 "Hg10 mi
5:15 PM90 °FSunny.5 mph27%29.71 "Hg10 mi
4:55 PM90 °FSunny.7 mph27%29.71 "Hg10 mi
4:35 PM90 °FSunny.8 mph29%29.71 "Hg10 mi
4:15 PM90 °FSunny.5 mph31%29.72 "Hg10 mi
Weather by CustomWeather, © 2014

See weather overviewHow to use our weather pages